Location: ?????????
(38.5999°N, 22.7695°E)
Time: 09:56:46
(UTC+00:00)

CZ-2D R/B - Pass Details

Date: 23 May 2024
Orbit: 790 x 843 km, 98.8° (Epoch: 23 June)

Event Time Altitude Azimuth Distance (km) Brightness Sun altitude
Rises 01:53:13 0° 355° (N) 3,406 5.9 -13.4°
Reaches altitude 10° 01:56:25 10° 336° (NNW) 2,463 4.8 -12.9°
Maximum altitude 01:59:43 17° 298° (WNW) 2,020 4.0 -12.4°
Enters shadow 02:02:44 11° 263° (W) 2,377 4.0 -12.0°
